Weather History for Hereford, TX

Change the Weather History Date:

Sunday, August 4, 2013

  Actual Average (KAMA) Record (KAMA)
Temperature  
Mean Temperature 81 °F 78 °F  
Max Temperature 92 °F 90 °F 104 °F (2003)
Min Temperature 70 °F 65 °F 58 °F (1894)
Degree Days  
Heating Degree Days 0 0  
Month to date heating degree days 0  
Since 1 June heating degree days 7  
Since 1 July heating degree days 0  
Cooling Degree Days 16 13  
Month to date cooling degree days 52  
Year to date cooling degree days 877  
Since 1 June cooling degree days 752  
Growing Degree Days 31 (Base 50)    
Moisture  
Dew Point 57 °F    
Average Humidity 47    
Maximum Humidity 81    
Minimum Humidity 25    
Precipitation  
Precipitation 0.00 in 0.11 in 1.40 in (1920)
Month to date precipitation 0.44  
Year to date precipitation 12.80  
Snow  
Snow 0.00 in 0.00 in 0.00 in ()
Month to date snowfall 0.0  
Since 1 June snowfall 0.0  
Since 1 July snowfall 0.0  
Snow Depth -    
Sea Level Pressure  
Sea Level Pressure 30.13 in    
Wind  
Wind Speed 7 mph (South)    
Max Wind Speed 20 mph    
Max Gust Speed 25 mph    
Visibility 10 miles    
Events      
T = Trace of Precipitation, MM = Missing Value Source: NWS Daily Summary

Daily Weather History Graph

Daily Weather History Graph

Search for Another Location

Airport:

Trip Planner

Search our weather history database for the weather conditions in past years. The results will help you decide how hot, cold, wet, or windy it might be!

Date:

Astronomy

Aug. 04, 2013 Rise Set
Actual Time 7:01 AM CDT 8:48 PM CDT
Civil Twilight 6:33 AM CDT 9:16 PM CDT
Nautical Twilight 6:00 AM CDT 9:49 PM CDT
Astronomical Twilight 5:25 AM CDT 10:24 PM CDT
Moon 5:05 AM CDT (8/4) 7:13 PM CDT (8/4)
Length of Visible Light 14h 42m
Length of Day
13h 47m
Waning Crescent, 4% of the Moon is Illuminated
Aug 4
Waning Crescent
Aug 6
New
Aug 14
First Quarter
Aug 20
Full
Aug 28
Last Quarter

Hourly Weather History & Observations

Time (CDT) Temp. Heat Index Dew Point Humidity Pressure Visibility Wind Dir Wind Speed Gust Speed Precip Events Conditions
12:15 AM 76.8 °F - 65.7 °F 68% 30.14 in 10.0 mi NNE 6.9 mph - N/A   Clear
12:35 AM 75.7 °F - 65.3 °F 70% 30.13 in 10.0 mi ENE 5.8 mph - N/A   Clear
12:55 AM 74.8 °F - 64.4 °F 70% 30.13 in 10.0 mi East 4.6 mph - N/A   Clear
1:15 AM 72.7 °F - 64.6 °F 76% 30.14 in 10.0 mi West 4.6 mph - N/A   Clear
1:35 AM 71.6 °F - 65.5 °F 81% 30.13 in 10.0 mi WNW 3.5 mph - N/A   Clear
1:55 AM 72.0 °F - 64.4 °F 77% 30.14 in 10.0 mi SSW 4.6 mph - N/A   Clear
2:15 AM 74.5 °F - 58.6 °F 58% 30.14 in 10.0 mi SW 4.6 mph - N/A   Clear
2:35 AM 76.8 °F - 55.6 °F 48% 30.14 in 10.0 mi SSW 9.2 mph 17.3 mph N/A   Clear
2:55 AM 75.2 °F - 55.9 °F 51% 30.14 in 10.0 mi South 8.1 mph - N/A   Clear
3:15 AM 73.8 °F - 56.3 °F 54% 30.14 in 10.0 mi South 6.9 mph - N/A   Clear
3:35 AM 71.4 °F - 56.8 °F 60% 30.13 in 10.0 mi South 6.9 mph - N/A   Clear
3:55 AM 70.7 °F - 56.5 °F 61% 30.13 in 10.0 mi SSW 6.9 mph - N/A   Clear
4:15 AM 70.7 °F - 56.5 °F 61% 30.12 in 10.0 mi South 6.9 mph - N/A   Clear
4:35 AM 70.3 °F - 57.0 °F 63% 30.12 in 10.0 mi SSE 3.5 mph - N/A   Clear
4:55 AM 70.9 °F - 57.2 °F 62% 30.12 in 10.0 mi South 4.6 mph - N/A   Clear
5:15 AM 71.2 °F - 59.0 °F 65% 30.14 in 10.0 mi NW 8.1 mph - N/A   Scattered Clouds
5:35 AM 71.1 °F - 59.9 °F 68% 30.17 in 10.0 mi NNW 8.1 mph - N/A   Mostly Cloudy
5:55 AM 71.1 °F - 61.5 °F 72% 30.17 in 10.0 mi NNW 3.5 mph - N/A   Overcast
6:15 AM 70.9 °F - 62.1 °F 74% 30.17 in 10.0 mi Calm Calm - N/A   Mostly Cloudy
6:35 AM 70.9 °F - 61.7 °F 73% 30.17 in 10.0 mi Calm Calm - N/A   Mostly Cloudy
6:55 AM 70.7 °F - 62.2 °F 75% 30.18 in 10.0 mi NNW 3.5 mph - N/A   Mostly Cloudy
7:15 AM 70.2 °F - 62.8 °F 77% 30.18 in 10.0 mi Calm Calm - N/A   Overcast
7:35 AM 70.7 °F - 64.4 °F 80% 30.17 in 10.0 mi Calm Calm - N/A   Mostly Cloudy
7:55 AM 70.2 °F - 63.9 °F 80% 30.17 in 10.0 mi Calm Calm - N/A   Scattered Clouds
8:15 AM 72.3 °F - 64.4 °F 76% 30.17 in 10.0 mi Calm Calm - N/A   Clear
8:35 AM 73.9 °F - 64.0 °F 71% 30.17 in 10.0 mi Calm Calm - N/A   Clear
8:55 AM 75.2 °F - 62.2 °F 64% 30.17 in 10.0 mi South 4.6 mph - N/A   Clear
9:15 AM 77.5 °F - 62.4 °F 59% 30.17 in 10.0 mi South 5.8 mph - N/A   Clear
9:35 AM 80.8 °F 81.2 °F 58.6 °F 47% 30.17 in 10.0 mi SSW 11.5 mph 18.4 mph N/A   Clear
9:55 AM 81.5 °F 81.5 °F 57.7 °F 44% 30.16 in 10.0 mi SSW 13.8 mph 20.7 mph N/A   Clear
10:15 AM 82.8 °F 82.1 °F 56.5 °F 40% 30.16 in 10.0 mi SSW 19.6 mph 25.3 mph N/A   Clear
10:35 AM 83.5 °F 82.5 °F 55.4 °F 38% 30.16 in 10.0 mi SW 16.1 mph 24.2 mph N/A   Clear
10:55 AM 84.2 °F 83.0 °F 55.0 °F 37% 30.17 in 10.0 mi SSW 15.0 mph 19.6 mph N/A   Clear
11:15 AM 84.6 °F 83.4 °F 55.4 °F 37% 30.17 in 10.0 mi SSW 12.7 mph 18.4 mph N/A   Clear
11:35 AM 85.3 °F 83.9 °F 55.2 °F 36% 30.17 in 10.0 mi SSW 10.4 mph 17.3 mph N/A   Clear
11:55 AM 86.5 °F 84.9 °F 55.4 °F 34% 30.17 in 10.0 mi SW 12.7 mph - N/A   Clear
12:15 PM 87.1 °F 85.5 °F 55.8 °F 34% 30.17 in 10.0 mi SW 10.4 mph - N/A   Clear
12:35 PM 87.3 °F 85.5 °F 55.2 °F 33% 30.16 in 10.0 mi SW 10.4 mph - N/A   Clear
12:55 PM 87.6 °F 85.9 °F 55.2 °F 33% 30.15 in 10.0 mi SSW 10.4 mph - N/A   Clear
1:15 PM 88.7 °F 87.1 °F 55.9 °F 33% 30.15 in 10.0 mi SSW 12.7 mph 16.1 mph N/A   Clear
1:35 PM 89.1 °F 87.3 °F 55.4 °F 32% 30.14 in 10.0 mi South 9.2 mph - N/A   Clear
1:55 PM 89.6 °F 87.7 °F 55.2 °F 31% 30.14 in 10.0 mi SSW 9.2 mph - N/A   Clear
2:15 PM 90.1 °F 88.1 °F 55.2 °F 30% 30.13 in 10.0 mi SW 11.5 mph 17.3 mph N/A   Clear
2:35 PM 90.7 °F 88.7 °F 54.9 °F 30% 30.13 in 10.0 mi South 10.4 mph 16.1 mph N/A   Clear
2:55 PM 91.4 °F - 52.9 °F 27% 30.12 in 10.0 mi SSW 9.2 mph 19.6 mph N/A   Clear
3:15 PM 91.4 °F - 51.8 °F 26% 30.11 in 10.0 mi South 4.6 mph 19.6 mph N/A   Clear
3:35 PM 91.6 °F - 52.3 °F 26% 30.10 in 10.0 mi SSW 11.5 mph 19.6 mph N/A   Clear
3:55 PM 92.1 °F 89.7 °F 53.2 °F 27% 30.09 in 10.0 mi SSE 15.0 mph 19.6 mph N/A   Clear
4:15 PM 92.1 °F - 52.9 °F 26% 30.09 in 10.0 mi SSE 12.7 mph 18.4 mph N/A   Clear
4:35 PM 91.9 °F - 51.8 °F 25% 30.09 in 10.0 mi South 12.7 mph 21.9 mph N/A   Clear
4:55 PM 91.9 °F - 52.3 °F 26% 30.08 in 10.0 mi SSE 15.0 mph 19.6 mph N/A   Clear
5:15 PM 91.8 °F - 52.0 °F 26% 30.08 in 10.0 mi South 13.8 mph 17.3 mph N/A   Clear
5:35 PM 92.1 °F - 52.3 °F 26% 30.08 in 10.0 mi SSW 8.1 mph - N/A   Clear
5:55 PM 91.9 °F - 52.5 °F 26% 30.08 in 10.0 mi SSW 13.8 mph 18.4 mph N/A   Clear
6:15 PM 91.8 °F 89.3 °F 53.1 °F 27% 30.08 in 10.0 mi South 10.4 mph - N/A   Clear
6:35 PM 91.4 °F - 52.7 °F 27% 30.08 in 10.0 mi South 10.4 mph 18.4 mph N/A   Clear
6:55 PM 91.0 °F 88.7 °F 53.2 °F 28% 30.07 in 10.0 mi South 9.2 mph 17.3 mph N/A   Clear
7:15 PM 90.5 °F - 52.2 °F 27% 30.07 in 10.0 mi South 10.4 mph - N/A   Clear
7:35 PM 89.6 °F - 52.9 °F 28% 30.07 in 10.0 mi SSE 11.5 mph - N/A   Clear
7:55 PM 88.7 °F - 52.2 °F 29% 30.07 in 10.0 mi South 13.8 mph - N/A   Clear
8:15 PM 87.4 °F - 51.1 °F 29% 30.07 in 10.0 mi SSE 11.5 mph - N/A   Clear
8:35 PM 85.5 °F - 51.6 °F 31% 30.07 in 10.0 mi SSE 9.2 mph - N/A   Clear
8:55 PM 83.8 °F - 52.0 °F 33% 30.07 in 10.0 mi SSE 10.4 mph - N/A   Clear
9:15 PM 83.5 °F 82.2 °F 53.8 °F 36% 30.07 in 10.0 mi SSE 9.2 mph - N/A   Clear
9:35 PM 80.8 °F 80.7 °F 55.4 °F 42% 30.08 in 10.0 mi SE 9.2 mph - N/A   Clear
9:55 PM 80.8 °F 80.7 °F 55.8 °F 42% 30.09 in 10.0 mi SSE 10.4 mph 16.1 mph N/A   Clear
10:15 PM 80.6 °F 80.4 °F 54.9 °F 41% 30.09 in 10.0 mi SSE 9.2 mph - N/A   Clear
10:35 PM 80.4 °F 80.4 °F 55.0 °F 42% 30.09 in 10.0 mi SSE 9.2 mph - N/A   Clear
10:55 PM 79.9 °F - 54.7 °F 42% 30.09 in 10.0 mi SSE 11.5 mph 17.3 mph N/A   Clear
11:15 PM 79.3 °F - 55.0 °F 43% 30.09 in 10.0 mi SSE 11.5 mph - N/A   Clear
11:35 PM 78.3 °F - 55.4 °F 45% 30.10 in 10.0 mi SSE 11.5 mph - N/A   Clear
11:55 PM 77.4 °F - 55.9 °F 47% 30.11 in 10.0 mi South 9.2 mph - N/A   Clear